Great Bend, KS

11:41 PM CDT on May 26, 2018 (GMT -0500)
Great Bend Municipal

Weather History for KGBD - February, 2012

Change the Weather History Date:

Sunday, February 12, 2012

  Actual Average Record
Temperature  
Mean Temperature 19 °F -  
Max Temperature 26 °F 48 °F 48 °F (2017)
Min Temperature 12 °F 23 °F 10 °F (2018)
Degree Days  
Heating Degree Days 46    
Moisture  
Dew Point 7 °F    
Average Humidity 61    
Maximum Humidity 79    
Minimum Humidity 43    
Precipitation  
Precipitation 0.00 in - - ()
Sea Level Pressure  
Sea Level Pressure 30.36 in    
Wind  
Wind Speed 12 mph (SSE)    
Max Wind Speed 26 mph    
Max Gust Speed 32 mph    
Visibility 10 miles    
Events      
Averages and records for this station are not official NWS values.
T = Trace of Precipitation, MM = Missing Value Source: NWS Daily Summary

Daily Weather History Graph

Daily Weather History Graph

Search for Another Location

Airport or City:

Astronomy

Feb. 12, 2012 Rise Set
Actual Time 7:29 AM CST 6:09 PM CST
Civil Twilight 7:02 AM CST 6:37 PM CST
Nautical Twilight 6:31 AM CST 7:08 PM CST
Astronomical Twilight 6:00 AM CST 7:39 PM CST
Moon No Moon Rise 9:54 AM CST (2/12)
Length of Visible Light 11h 34m
Length of Day
10h 39m
Waning Gibbous, 72% of the Moon is Illuminated
Feb 12
Waning Gibbous
Feb 14
Last Quarter
Feb 21
New
Feb 29
First Quarter
Mar 8
Full

Hourly Weather History & Observations

Time (CST) Temp. Windchill Dew Point Humidity Pressure Visibility Wind Dir Wind Speed Gust Speed Precip Events Conditions
12:15 AM 12.2 °F 4.3 °F 3.2 °F 67% 30.57 in 10.0 mi SE 4.6 mph - N/A   Clear
12:35 AM 12.2 °F 4.3 °F 5.0 °F 73% 30.58 in 10.0 mi SSE 4.6 mph - N/A   Clear
12:55 AM 12.2 °F 4.3 °F 3.2 °F 67% 30.58 in 10.0 mi South 4.6 mph - N/A   Clear
1:15 AM 12.2 °F 6.1 °F 3.2 °F 67% 30.58 in 10.0 mi South 3.5 mph - N/A   Clear
1:35 AM 12.2 °F 2.9 °F 5.0 °F 73% 30.57 in 10.0 mi South 5.8 mph - N/A   Clear
1:55 AM 12.2 °F 2.9 °F 3.2 °F 67% 30.57 in 10.0 mi South 5.8 mph - N/A   Clear
2:15 AM 12.2 °F 4.3 °F 3.2 °F 67% 30.56 in 10.0 mi South 4.6 mph - N/A   Clear
2:35 AM 12.2 °F 6.1 °F 5.0 °F 73% 30.55 in 10.0 mi South 3.5 mph - N/A   Clear
2:55 AM 12.2 °F 1.7 °F 5.0 °F 73% 30.54 in 10.0 mi SSE 6.9 mph - N/A   Clear
3:15 AM 12.2 °F 4.3 °F 6.8 °F 79% 30.52 in 10.0 mi SSE 4.6 mph - N/A   Clear
3:35 AM 12.2 °F 2.9 °F 5.0 °F 73% 30.50 in 10.0 mi SE 5.8 mph - N/A   Clear
3:55 AM 12.2 °F 1.7 °F 5.0 °F 73% 30.49 in 10.0 mi SE 6.9 mph - N/A   Clear
4:15 AM 12.2 °F 1.7 °F 6.8 °F 79% 30.48 in 10.0 mi SSE 6.9 mph - N/A   Clear
4:35 AM 12.2 °F 2.9 °F 5.0 °F 73% 30.48 in 10.0 mi South 5.8 mph - N/A   Clear
4:55 AM 12.2 °F 1.7 °F 5.0 °F 73% 30.48 in 10.0 mi South 6.9 mph - N/A   Clear
5:15 AM 12.2 °F 1.7 °F 6.8 °F 79% 30.47 in 10.0 mi South 6.9 mph - N/A   Clear
5:35 AM 12.2 °F 2.9 °F 6.8 °F 79% 30.46 in 10.0 mi SSE 5.8 mph - N/A   Clear
5:55 AM 12.2 °F 2.9 °F 6.8 °F 79% 30.45 in 10.0 mi SSE 5.8 mph - N/A   Clear
6:15 AM 14.0 °F 3.9 °F 6.8 °F 73% 30.45 in 10.0 mi South 6.9 mph - N/A   Clear
6:35 AM 14.0 °F 2.0 °F 6.8 °F 73% 30.44 in 10.0 mi South 9.2 mph - N/A   Clear
6:55 AM 14.0 °F 2.9 °F 6.8 °F 73% 30.44 in 10.0 mi South 8.1 mph - N/A   Clear
7:15 AM 15.8 °F 2.7 °F 8.6 °F 73% 30.43 in 10.0 mi South 11.5 mph - N/A   Mostly Cloudy
7:35 AM 15.8 °F 2.1 °F 8.6 °F 73% 30.42 in 10.0 mi South 12.7 mph - N/A   Overcast
7:55 AM 17.6 °F 3.2 °F 8.6 °F 68% 30.41 in 10.0 mi South 15.0 mph - N/A   Overcast
8:15 AM 17.6 °F 3.2 °F 8.6 °F 68% 30.41 in 10.0 mi South 15.0 mph - N/A   Overcast
8:35 AM 19.4 °F 4.1 °F 8.6 °F 63% 30.41 in 10.0 mi South 18.4 mph - N/A   Overcast
8:55 AM 19.4 °F 2.8 °F 8.6 °F 63% 30.41 in 10.0 mi South 21.9 mph - N/A   Overcast
9:15 AM 19.4 °F 4.5 °F 8.6 °F 63% 30.41 in 10.0 mi South 17.3 mph - N/A   Overcast
9:35 AM 21.2 °F 4.2 °F 8.6 °F 58% 30.41 in 10.0 mi South 25.3 mph - N/A   Overcast
9:55 AM 21.2 °F 5.2 °F 8.6 °F 58% 30.40 in 10.0 mi South 21.9 mph 28.8 mph N/A   Overcast
10:15 AM 21.2 °F 4.5 °F 6.8 °F 54% 30.40 in 10.0 mi South 24.2 mph 29.9 mph N/A   Overcast
10:35 AM 23.0 °F 6.6 °F 6.8 °F 50% 30.38 in 10.0 mi South 25.3 mph 29.9 mph N/A   Overcast
10:55 AM 23.0 °F 8.0 °F 6.8 °F 50% 30.37 in 10.0 mi South 20.7 mph 26.5 mph N/A   Overcast
11:15 AM 23.0 °F 7.2 °F 6.8 °F 50% 30.36 in 10.0 mi South 23.0 mph 29.9 mph N/A   Overcast
11:35 AM 23.0 °F 6.9 °F 6.8 °F 50% 30.35 in 10.0 mi South 24.2 mph 29.9 mph N/A   Overcast
11:55 AM 23.0 °F 7.2 °F 6.8 °F 50% 30.33 in 10.0 mi South 23.0 mph 28.8 mph N/A   Overcast
12:15 PM 24.8 °F 9.3 °F 6.8 °F 46% 30.32 in 10.0 mi South 24.2 mph 29.9 mph N/A   Overcast
12:35 PM 24.8 °F 9.6 °F 6.8 °F 46% 30.30 in 10.0 mi South 23.0 mph - N/A   Overcast
12:55 PM 24.8 °F 9.6 °F 6.8 °F 46% 30.28 in 10.0 mi South 23.0 mph 27.6 mph N/A   Overcast
1:15 PM 24.8 °F 9.0 °F 8.6 °F 50% 30.26 in 10.0 mi South 25.3 mph 28.8 mph N/A   Overcast
1:35 PM 24.8 °F 10.3 °F 6.8 °F 46% 30.24 in 10.0 mi South 20.7 mph 28.8 mph N/A   Overcast
1:55 PM 24.8 °F 10.3 °F 6.8 °F 46% 30.22 in 10.0 mi South 20.7 mph 28.8 mph N/A   Overcast
2:15 PM 26.6 °F 11.4 °F 8.6 °F 47% 30.21 in 10.0 mi SSE 25.3 mph 32.2 mph N/A   Overcast
2:35 PM 26.6 °F 11.7 °F 6.8 °F 43% 30.18 in 10.0 mi SSE 24.2 mph 28.8 mph N/A   Overcast
2:55 PM 24.8 °F 9.6 °F 6.8 °F 46% 30.16 in 10.0 mi SSE 23.0 mph 31.1 mph N/A   Overcast
3:15 PM 24.8 °F 8.7 °F 8.6 °F 50% 30.15 in 10.0 mi SSE 26.5 mph - N/A   Overcast
3:35 PM 24.8 °F 9.0 °F 8.6 °F 50% 30.14 in 10.0 mi SSE 25.3 mph 31.1 mph N/A   Overcast
3:55 PM 24.8 °F 9.3 °F 8.6 °F 50% 30.13 in 10.0 mi SSE 24.2 mph - N/A   Overcast
4:15 PM 24.8 °F 9.0 °F 8.6 °F 50% 30.12 in 10.0 mi SSE 25.3 mph 29.9 mph N/A   Overcast
4:35 PM 24.8 °F 9.3 °F 8.6 °F 50% 30.11 in 10.0 mi SSE 24.2 mph 31.1 mph N/A   Overcast
4:55 PM 24.8 °F 10.3 °F 10.4 °F 54% 30.11 in 10.0 mi South 20.7 mph 27.6 mph N/A   Mostly Cloudy
5:15 PM 24.8 °F 9.6 °F 10.4 °F 54% 30.09 in 10.0 mi SSE 23.0 mph 29.9 mph N/A   Partly Cloudy
5:35 PM 24.8 °F 8.7 °F 10.4 °F 54% 30.08 in 10.0 mi SSE 26.5 mph - N/A   Clear
5:55 PM 24.8 °F 8.7 °F 10.4 °F 54% 30.07 in 10.0 mi SSE 26.5 mph 32.2 mph N/A   Clear
6:15 PM 24.8 °F 9.6 °F 10.4 °F 54% 30.06 in 10.0 mi South 23.0 mph 28.8 mph N/A   Mostly Cloudy
6:35 PM 24.8 °F 9.3 °F 10.4 °F 54% 30.05 in 10.0 mi South 24.2 mph 32.2 mph N/A   Overcast
6:55 PM 24.8 °F 9.3 °F 10.4 °F 54% 30.04 in 10.0 mi South 24.2 mph 33.4 mph N/A   Overcast
7:15 PM 24.8 °F 9.3 °F 10.4 °F 54% 30.04 in 10.0 mi SSE 24.2 mph 31.1 mph N/A   Overcast
7:35 PM 24.8 °F 9.0 °F 12.2 °F 59% 30.03 in 10.0 mi SSE 25.3 mph 28.8 mph N/A   Overcast
7:55 PM 24.8 °F 9.3 °F 12.2 °F 59% 30.02 in 10.0 mi South 24.2 mph - N/A   Overcast
8:15 PM 24.8 °F 9.6 °F 15.8 °F 69% 30.01 in 10.0 mi SSE 23.0 mph 31.1 mph N/A   Overcast
8:35 PM 24.8 °F 8.7 °F 17.6 °F 74% 30.00 in 7.0 mi SSE 26.5 mph 34.5 mph N/A   Overcast
8:55 PM 24.8 °F 9.3 °F 17.6 °F 74% 29.99 in 5.0 mi South 24.2 mph 32.2 mph N/A   Overcast
9:15 PM 24.8 °F 9.0 °F 17.6 °F 74% 29.98 in 10.0 mi South 25.3 mph 32.2 mph N/A   Overcast
9:35 PM 24.8 °F 8.4 °F 17.6 °F 74% 29.96 in 10.0 mi South 27.6 mph 34.5 mph N/A   Overcast
9:55 PM 24.8 °F 9.0 °F 19.4 °F 80% 29.96 in 10.0 mi South 25.3 mph 33.4 mph N/A   Overcast
10:15 PM 24.8 °F 7.9 °F 19.4 °F 80% 29.96 in 10.0 mi South 29.9 mph 38.0 mph N/A   Overcast
10:35 PM 24.8 °F 9.0 °F 19.4 °F 80% 29.95 in 10.0 mi South 25.3 mph 36.8 mph N/A   Overcast
10:55 PM 26.6 °F 11.4 °F 19.4 °F 74% 29.94 in 10.0 mi South 25.3 mph 32.2 mph N/A   Overcast
11:15 PM 26.6 °F 10.8 °F 19.4 °F 74% 29.93 in 10.0 mi South 27.6 mph 33.4 mph N/A   Overcast
11:55 PM 26.6 °F 12.0 °F 21.2 °F 80% 29.92 in 10.0 mi South 23.0 mph 34.5 mph N/A   Overcast